Погода в Козьмино

Россия / Приморский край     42°43′12″N   133°01′54″E
темп.,
°C
ветер,
м/с
пор.,
м/с
влажн.,
%
обл.,
%
осадки,
мм/ч
давл.,
гПа
погр.,
м
19 апреля, пн
пн1901:00+6зсз56690 0.0 100657
04:00+6зсз57720 0.0 100652
07:00+5сз44740 0.0 100641
10:00+8зсз46630 0.0 1006289
13:00+7з711670 0.0 1005240
16:00+7з47655 0.0 1004277
19:00+7зюз23670 0.0 100558
22:00+6з22700 0.0 100612
20 апреля, вт
вт2001:00+6зсз22705 0.0 100614
04:00+8ссз510590 0.0 1008377
07:00+7сз714430 0.0 1013581
10:00+7сз611340 0.0 1016664
13:00+9зсз711320 0.0 1017784
16:00+10зсз711361 0.0 1016901
19:00+8з511475 0.0 1017697
22:00+5з712722 0.0 1021184
21 апреля, ср
ср2101:00+5з58760 0.0 1021119
04:00+4з36817 0.0 102177
07:00+4сз23770 0.0 102235
10:00+10зсз33430 0.0 1022139
13:00+8з35620 0.0 1022219
16:00+8з347041 0.0 1021157
19:00+7зсз337956 0.0 102180
22:00+6сз228959 0.0 102214
22 апреля, чт
чт2201:00+8ссз1281100 0.0 102211
04:00+8зсз2275100 0.0 102211
07:00+8с1162100 0.0 102310
10:00+8вюв71260100 0.0 1024253
13:00+11вюв101547100 0.0 1024386
16:00+9в91648100 0.0 1025348
19:00+7в71258100 0.0 1026266
22:00+6в51061100 0.0 1027210
23 апреля, пт
пт2301:00+6в4564100 0.0 102771
04:00+6в3364100 0.0 102627
07:00+6вюв1266100 0.0 102717
10:00+6зюз2267100 0.0 1027106
13:00+7з4567100 0.0 1026206
16:00+7з4669100 0.0 1024133
19:00+10сз4463100 0.0 102334
22:00+9зсз5567100 0.0 102334